Location: Arleux
(50.3632°N, 2.8721°E)
Time: 06:21:20
(UTC+00:00)

SJ-7 - Pass Details

Date: 15 December 2019
Orbit: 556 x 603 km, 97.7° (Epoch: 25 January)

Event Time Altitude Azimuth Distance (km) Brightness Sun altitude
Rises 06:13:45 0° 9° (N) 2,769 7.8 -13.1°
Reaches altitude 10° 06:15:56 10° 5° (N) 1,862 6.9 -12.8°
Maximum altitude 06:19:51 53° 289° (WNW) 690 4.4 -12.2°
Drops below altitude 10° 06:23:43 10° 212° (SSW) 1,838 6.9 -11.6°
Sets 06:25:52 0° 208° (SSW) 2,727 7.8 -11.3°
